Regional Weather Roundup
Issued by NWS

Home | Current Version | Previous Version | Graphics & Text | Print | Product List | Glossary On
Versions: 1 2 3 4 5 6 7 8 9 10 11 12 13 14 15 16 17 18 19 20 21 22 23 24 25 26 27 28 29 30 31 32 33 34 35 36 37 38 39 40 41 42 43 44 45 46 47 48 49 50
000
ASUS43 KBIS 250659
RWRND

NORTH DAKOTA REGIONAL WEATHER ROUNDUP
NATIONAL WEATHER SERVICE BISMARCK ND
200 AM CDT FRI APR 25 2014

NOTE: "FAIR" INDICATES FEW OR NO CLOUDS BELOW 12,000 FEET WITH NO
SIGNIFICANT WEATHER AND/OR OBSTRUCTIONS TO VISIBILITY.


NDZ001>003-009>011-017-250800-
NORTHWEST NORTH DAKOTA

CITY           SKY/WX    TMP DP  RH WIND       PRES   REMARKS
WILLISTON      MOCLDY    34  28  79 CALM      29.71S
MINOT          CLEAR     38  31  76 SW12      29.70R
$$

NDZ018>021-031>035-040>046-250800-
SOUTHWEST NORTH DAKOTA

CITY           SKY/WX    TMP DP  RH WIND       PRES   REMARKS
BISMARCK       MOCLDY    37  28  70 W3        29.76R
GARRISON         N/A     33  27  78 S6        29.72R
HETTINGER ARPT PTCLDY    39  27  62 CALM      29.78S
$$

NDZ004>008-012>016-024-026-027-054-250800-
NORTHEAST NORTH DAKOTA

CITY           SKY/WX    TMP DP  RH WIND       PRES   REMARKS
GRAND FORKS    FOG       38  38 100 CALM      29.72R VSB 1
DEVILS LAKE    CLOUDY    36  32  87 SW3       29.72S VSB 1/4
$$

NDZ022-023-025-028>030-036>039-047>053-250800-
SOUTHEAST NORTH DAKOTA

CITY           SKY/WX    TMP DP  RH WIND       PRES   REMARKS
FARGO          FOG       40  39  97 W3        29.72S VSB 1/4
JAMESTOWN      CLEAR     36  33  89 W6        29.72S
$$




USA.gov is the U.S. government's official web portal to all federal, state and local government web resources and services.